TimeEST,TemperatureF,Dew PointF,Humidity,Sea Level PressureIn,VisibilityMPH,Wind Direction,Wind SpeedMPH,Gust SpeedMPH,PrecipitationIn,Events,Conditions,WindDirDegrees,DateUTC
12:54 AM,41.0,24.1,51,29.96,10.0,ESE,6.9,-,N/A,,Overcast,110,2013-03-05 05:54:00
2:54 AM,1.0,-9999,N/A,29.95,10.0,East,4.6,-,N/A,,Overcast,90,2013-03-05 07:54:00
3:54 AM,-9999,-9999,N/A,29.89,10.0,ESE,5.8,-,N/A,,Overcast,110,2013-03-05 08:54:00
4:54 AM,-9999,-9999,N/A,29.89,10.0,ESE,5.8,-,N/A,,Overcast,110,2013-03-05 09:54:00
5:17 AM,-9999,-9999,N/A,29.90,6.0,East,6.9,-,0.02,Rain,Rain,100,2013-03-05 10:17:00
5:54 AM,-9999,-9999,N/A,29.89,10.0,ESE,4.6,-,0.05,Rain,Light Rain,120,2013-03-05 10:54:00
6:54 AM,-9999,-9999,N/A,29.86,10.0,ESE,10.4,-,0.01,Rain,Light Rain,110,2013-03-05 11:54:00
7:54 AM,-9999,-9999,N/A,29.87,9.0,SE,6.9,-,0.03,Rain,Light Rain,130,2013-03-05 12:54:00
8:54 AM,1.0,-9999,N/A,29.88,10.0,SE,9.2,-,0.01,,Overcast,130,2013-03-05 13:54:00
9:40 AM,1.4,-9999,N/A,29.83,3.0,SE,9.2,-,0.00,,Overcast,130,2013-03-05 14:40:00
9:54 AM,41.0,37.4,87,29.86,4.0,SE,10.4,-,0.00,,Haze,140,2013-03-05 14:54:00
10:39 AM,41.0,39.2,93,29.79,1.8,SE,9.2,-,0.00,Rain,Light Rain,130,2013-03-05 15:39:00
10:54 AM,41.0,39.2,93,29.79,2.5,ESE,10.4,-,0.01,Rain,Light Rain,120,2013-03-05 15:54:00
11:54 AM,42.8,41.0,93,29.74,2.0,SE,12.7,-,0.00,Rain,Light Rain,130,2013-03-05 16:54:00
12:54 PM,44.6,41.0,87,29.72,1.5,SE,8.1,-,0.04,Rain,Rain,140,2013-03-05 17:54:00
1:54 PM,-9999,-9999,N/A,29.65,4.0,SSE,10.4,-,0.13,,Overcast,150,2013-03-05 18:54:00
2:14 PM,-9999,-9999,N/A,29.64,5.0,SSE,9.2,-,0.03,,Overcast,150,2013-03-05 19:14:00
2:54 PM,46.4,44.6,93,29.64,5.0,SSE,5.8,-,0.07,Rain,Light Rain,150,2013-03-05 19:54:00
3:54 PM,-9999,-9999,N/A,29.58,5.0,SE,5.8,-,0.09,,Overcast,130,2013-03-05 20:54:00
4:51 PM,-9999,-9999,N/A,29.56,4.0,Calm,Calm,-,0.04,,Overcast,0,2013-03-05 21:51:00
4:54 PM,-9999,-9999,N/A,29.56,3.0,Calm,Calm,-,0.04,,Overcast,0,2013-03-05 21:54:00
5:04 PM,-9999,-9999,N/A,29.57,2.0,SW,4.6,-,0.03,,Overcast,230,2013-03-05 22:04:00
5:31 PM,-9999,-9999,N/A,29.57,4.0,WSW,9.2,-,0.11,,Overcast,240,2013-03-05 22:31:00
5:52 PM,-9999,-9999,N/A,29.58,5.0,West,24.2,36.8,0.15,,Unknown,270,2013-03-05 22:52:00
5:54 PM,-9999,-9999,N/A,29.58,5.0,West,20.7,36.8,0.15,,Unknown,270,2013-03-05 22:54:00
6:16 PM,-9999,-9999,N/A,29.62,4.0,West,29.9,39.1,0.04,,Unknown,280,2013-03-05 23:16:00
6:29 PM,-9999,-9999,N/A,29.64,5.0,West,23.0,33.4,0.06,,Unknown,270,2013-03-05 23:29:00
6:54 PM,-9999,-9999,N/A,29.67,5.0,West,24.2,47.2,0.09,,Unknown,270,2013-03-05 23:54:00
7:01 PM,-9999,-9999,N/A,29.68,1.8,West,24.2,33.4,0.00,,Unknown,270,2013-03-06 00:01:00
7:54 PM,-9999,-9999,N/A,29.70,1.0,West,24.2,35.7,0.02,,Unknown,270,2013-03-06 00:54:00
8:20 PM,-9999,-9999,N/A,29.72,2.0,West,26.5,34.5,0.01,,Unknown,270,2013-03-06 01:20:00
8:23 PM,-9999,-9999,N/A,29.72,3.0,West,19.6,34.5,0.01,,Unknown,260,2013-03-06 01:23:00
8:54 PM,-9999,-9999,N/A,29.73,10.0,West,26.5,39.1,0.01,,Overcast,270,2013-03-06 01:54:00
9:54 PM,-9999,-9999,N/A,29.74,4.0,West,16.1,31.1,0.00,,Unknown,260,2013-03-06 02:54:00
10:02 PM,-9999,-9999,N/A,29.74,4.0,West,27.6,36.8,0.00,,Unknown,260,2013-03-06 03:02:00
10:13 PM,-9999,-9999,N/A,29.75,5.0,West,24.2,38.0,0.00,,Unknown,270,2013-03-06 03:13:00
10:54 PM,-9999,-9999,N/A,29.76,3.0,West,24.2,33.4,0.00,,Unknown,270,2013-03-06 03:54:00
11:47 PM,-9999,-9999,N/A,29.76,2.5,West,24.2,33.4,0.00,,Unknown,260,2013-03-06 04:47:00
11:54 PM,-9999,-9999,N/A,29.76,2.5,West,25.3,35.7,0.00,,Unknown,260,2013-03-06 04:54:00